Timeline UpdatesTrip UpdatesNews PostsPvt Posts♥♥Travel TipsAdmin PostsConv PostsFollowed PostsChat RequestsBlog PostsPNR Posts

Disclaimer
Search
 
 
Thu Nov 27, 2014 12:17:39 ISTHomeTrainsΣChainsAtlasPNRForumGalleryNewsFAQTripsMembersLoginFeedback
No Recent News for this Train
Other Trains in the News **new
Latest...
.
Sat Sep 13, 2014 (05:37PM)
⇐ Return Journey: Train# 58117

58118/Gondia-Jharsuguda Passenger (UnReserved)

Time-Table HAS CHANGED.
Sep 13 2014 (5:37PM)
Change Departure Station:
Change Arrival Station:
Post a Train Travel TipPost a Train Travel Tip **new
Post a Comment/Question/Picture/VideoPost a Comment/Question/Picture/Video
Pantry/Catering
???
RSA - Rake Sharing
Rake/Coach Composition
Loco
BIA WAM-4
News    PNR    Forum    Time-Table    Availability    Fare Chart    Map    Arr/Dep History    Trips    Gallery    ΣChains    X/O    Timeline    
Travel Time: 3h 5m    15 halts    Distance: 135 km    Avg Speed: 43 km/hr
Type: Passenger
Zone: SER/South Eastern
Departs @ 05:05 (Avg 4m late)
Platform# ???
SMTWTFS
Gondia Junction/G 
Arrives @ 08:10 (Avg 12m late)
Platform# ???
SMTWTFS
Durg Junction/DURG 

15 halts. 15 intermediate Stations between Gondia Junction and Durg Junction

Show ALL intermediate Stations  Show Old Time-Table

#TrkCodeStation NameX/OArrivesAvgDepartsAvgHaltPFDay#KmSpeedElevZoneAddress
1/==/GGondia Junction (7)»  -05:00 05:05+4--10.079316mSECRGondia 441601, Maharashtra
2/==/GDMGudma (2)  05:10 05:14+1305:11 05:15+131m--111.965323mSECRGondia, Maharashtra
3/==/AGNAmgaon (2)X  05:20 05:25+1205:22 05:27+122m--122.873317mSECRGondia, Maharashtra
4/==/DNLDhanoli (2)X  05:28 05:33-05:29 05:34-1m--130.175310mSECRAmgaon, Maharashtra
5/==/SKSSalekasa (2)X  05:36 05:40+1405:38 05:42+182m--137.553312mSECRRajnandgaon, Chhattisgarh
6/==/DKSDarekasa (2)  05:51 05:55+1705:52 05:56+181m--149.166381mSECRRajnandgaon, Chhattisgarh
7/==/BTLBortalao (2)  05:59 06:03+1906:00 06:04+201m--156.853409mSECRRajnandgaon, Chhattisgarh
8/==/PJBPaniajob (2)  06:12 06:14+2006:13 06:15+211m--165.646363mSECRRajnandgaon, Chhattisgarh
9/==/DGGDongargarh (2)  06:25+1606:35+1410m--173.365353mSECRDongargarh, Chhattisgarh
10/==/JTRJatkanhar  06:41+2006:42+201m--179.840330mSECRRajnandgaon, Chhattisgarh
11/==/MUAMusraX  06:52+1706:54+162m--186.559323mSECRRajnandgaon, Chhattisgarh
12/==/BAKLBakal  07:02+1507:03+151m--194.353318mSECRRajnandgaon, Chhattisgarh
13/==/RJNRaj Nandgaon (3)X  07:15+1407:20+125m--1104.859313mSECRRajnandgaon, Chhattisgarh
14/==/PMSParmalkasa  07:28+707:29+81m--1112.770300mSECRRajnandgaon, Chhattisgarh
15/==/MUPMurhiparO  07:35+707:37+72m--1119.864319mSECRRajnandgaon, Chhattisgarh
16/==/RSMRasmaraXO  07:44+707:45+71m--1127.219292mSECRRasmada, Chhattisgarh
17/==/DURGDurg Junction (6)•  08:10+1208:15+135m--1135.339299mSECRPh: 91-788-2322059, Chhattisgarh
18/==/BQRBhilai Nagar (2)X  08:22+2208:24+212m--1139.853298mSECRBhilai, Chhattisgarh
19/==/BPHBBhilai Power House (3)X  08:29+008:31+02m--1144.256312mSECRBhilai, Chhattisgarh
20/==/BIABhilai (2)  08:36+1808:38+182m--1148.956309mSECRBhilai, Chhattisgarh
21/==/HCAB new halt!!  08:42-08:44-2m--1152.656 ???
22/==/DCAB new halt!!  08:47-08:48-1m--1155.446 ???
23/==/KMIKumhari (2)X  08:54+2208:56+222m--1160.062287mSECRKumhari, Chhattisgarh
24/==/SZBSarona Cabin (2)  09:02+2209:04+232m--1166.248282mSECRRaipur, Chhattisgarh
25/==/SRWNSaraswatinagar (2)X  09:09+2509:11+252m--1170.115291mSECRRaipur, Chhattisgarh
26/==/RRaipur Junction (6)  09:20+1209:27+137m--1172.431297mSECRRaipur, Chhattisgarh
27/==/WRCWRS Colony PH  09:32-09:33-1m--1175.036286mSECRRaipur, Chhattisgarh
28/==/URKUrkuraX  09:39 09:38+2609:41 09:40+262m--1178.086275mSECRRaipur, Chhattisgarh
29/==/MDHMandharX  09:47 09:46+2809:49 09:48+302m--1186.664281mSECRDonde Kalan, Chhattisgarh
30/==/SLHSiliariX  09:58 09:57+3410:00 09:59+352m--1196.154280mSECRBanjari Rd, Chhattisgarh
31/==/TLDTilda (3)  10:17 10:15+4010:19 10:17+412m--1210.649293mSECRBanjari Rd, Chhattisgarh
32/==/HNHathbandhX  10:32 10:30+3910:34 10:32+462m--1221.384283mSECRRaipur, Chhattisgarh
33/==/BYTBhatapara (4)XO  10:45 10:43+4910:47 10:45+502m--1236.688270mSECRBanjari Road, Chhattisgarh
34/==/NPINipaniaX  10:58 10:55+1:0311:00 10:57+1:032m--1251.441259mSECRNational Highway 200, Chhattisgarh
35/==/DGSDagori  11:13 11:09+1:0111:15 11:11+1:012m--1259.677254mSECRCollege Road, Chhattisgarh
36/==/BYLBelhaX  11:21 11:17+1:0211:23 11:19+1:032m--1267.370269mSECRCollege Road, Chhattisgarh
37/==/CHBTChakarbhatha  11:28 11:24-11:30 11:26-2m--1273.146285mSECRBilaspur, Chhattisgarh
38/==/DPHDadhapara (3)X  11:35 11:30+1:1311:40 11:35+1:155m--1276.24272mSECRBilaspur, Chhattisgarh
39/==/BSPBilaspur Junction (8)  13:15+313:45+430m21282.849271mSECRBilaspur, Chhattisgarh
40/==/GTWGatora  13:54 13:53+913:57 13:55+83 2m--1289.357268mSECRBilaspur, Chhattisgarh
41/==/JRMGJairamnagar  14:05 14:03+914:07 14:05+92m--1297.067272mSECRNational Highway 200, Chhattisgarh
42/==/KTSHKotmi Sonar Halt  14:13 14:11+1:1414:15 14:13+1:142m--1303.764266mSECRKotmisunar, Chhattisgarh
43/==/AKTAkaltara (4)X  14:21 14:19+1514:23 14:21+162m--1310.158284mSECRDist. Janjgir Champa, Chhattisgarh
44/==/KPNAKapan (1)  14:30 14:29-14:32 14:31-2m11317.848263mSECRNational Highway 200, Chhattisgarh
45/==/NIANaila (3)X  14:45 14:40+1614:50 14:45+145m--1325.043273mSECRJanjgir, Chhattisgarh
46/==/CPHChampa Junction (3)  15:05 15:00+915:20 15:10+1215 10m--1335.990264mSECRNational Highway 200 (07819-245767), Chhattisgarh
47/==/SGRDSaragaon RoadX  15:28 15:16-15:30 15:18-2m--1344.865254mSECRNational Highway 200, Chhattisgarh
48/==/BUABaradwarX  15:38 15:24+2115:40 15:26+222m--1351.471260mSECRJanjgir-Champa, Chhattisgarh
49/==/JDDAJetha  15:46 15:32-15:48 15:34-2m--1358.578244mSECRNational Highway 200, Chhattisgarh
50/==/SKTSakti (4)X  16:15 15:40+2316:30 15:45+2315 5m--1366.256237mSECRJanjgir-Champa, Chhattisgarh
51/==/JDIJharradihX  16:38 15:56+2516:40 15:58+262m--1376.431247mSECRRaigarh, Chhattisgarh
52/==/KHSKharsiaXO  16:58 16:08+1917:03 16:10+215 2m--1381.651259mSECRNational Highway 200, Chhattisgarh
53/==/ROBRobertsonX  17:10 16:20+2417:12 16:22+242m--1390.177239mSECRRaigarh, Chhattisgarh
54/==/BEFBhupdeopur  17:20 16:29+3017:22 16:31+312m--1399.279243mSECRRaigarh, Chhattisgarh
55/==/KDTRKirodimalnagar (5)X  17:29 16:38+4117:31 16:40+452m--1408.429240mSECRRaigarh, Chhattisgarh
56/==/RIGRaigarh (3)  17:45 16:55+2417:55 17:05+2510m--1415.697220mSECRRaigarh, Chhattisgarh
57/==/KRLKotarlia  18:03 17:11+5818:05 17:13+582m--1425.373229mSECRRaigarh, Chhattisgarh
58/==/JMGJamga  18:10 17:20+5918:12 17:22+1:052m--1433.872233mSECRJamga Station, Chhattisgarh
59/==/DAODaghora  18:28 17:32+4918:30 17:34+482m--1445.856269mSECRRaigarh, Chhattisgarh
60/==/HGRHimgirX  18:38 17:42+1:0418:40 17:44+1:042m--1453.281275mSECRNational Highway 200, Chhattisgarh
61/==/BPHBelpahar (2)  18:50 17:54+1:1018:52 17:56+1:172m--1466.741235mSECRBelpahar, Odisha
62/==/BRJNBrajrajnagar  19:10 18:09+1:0919:15 18:11+1:095 2m--1475.623212mSECRBrajrajnagar, Odisha
63/==/IBIb  19:23 18:18+1:1319:25 18:20+1:192m--1478.214207mSECRJharsuguda, Odisha
64/==/JSGJharsuguda Junction (5)  20:15 19:00+28---1487.2-236mSERJharsuguda, Odisha
Scroll to Top
Scroll to Bottom